Home > Weather > Landsberg am Lech > Past weeks

Flag for Germany Past Weather in Landsberg am Lech, Bavaria, Germany — Yesterday and Last 2 Weeks

Now
73 °F

Mild.


Feels Like: 77 °F
Forecast: 54 / 74 °F
Wind: 6 mph from Northwest

Location: Landsberg

Current Time: May 27, 2016 at 4:31:11 PM

Latest Report: May 27, 2016 at 3:20 PM


Visibility: 6 mi

Pressure: 29.98 "Hg (28.00 "Hg at 593m altitude)

Humidity: 50%

Dew Point: 54 °F

Location of Landsberg am LechLocation

Past Weather in Landsberg am Lech — Graph

°F

Landsberg am Lech Temperature Yesterday

Maximum temperature yesterday: 72 °F (at 3:20 PM)
Minimum temperature yesterday: 52 °F (at 1:20 AM)
Average temperature yesterday: 62 °F

High & Low Weather Summary for the Past Weeks

 TemperatureHumidityPressure
High81 °F (May 22, 3:20 PM)100% (May 13, 8:03 AM)30.18 "Hg (May 13, 8:03 AM)
Low41 °F (May 15, 1:20 AM)32% (May 22, 1:20 PM)29.45 "Hg (May 13, 3:20 AM)
Average52 °F77%29.94 "Hg
* Reported May 12 2:20 PM — May 27 2:20 PM, Landsberg am Lech, Weather by CustomWeather, © 2016

Note: Actual official high and low records may vary slightly from our data, if they occured in-between our weather recording intervals... More about our weather records

Advertising

Landsberg am Lech Weather History for the Previous 24 Hours

Scroll right to see more
 ConditionsComfort  
Time TempWeatherWind HumidityBarometerVisibility
2:20 PM
Fri, May 27
73 °FMild.8 mph47%29.98 "Hg6 mi
1:20 PM72 °FMild.8 mph53%29.98 "Hg6 mi
12:20 PM70 °FMild.8 mph57%30.01 "Hg5 mi
11:20 AM70 °FMild.10 mph57%30.01 "HgN/A
10:20 AM68 °FMild.14 mph60%29.98 "HgN/A
9:20 AM63 °FMild.6 mph73%29.98 "HgN/A
8:20 AM59 °FCool.2 mph77%29.98 "HgN/A
7:20 AM57 °FCool.2 mph82%29.98 "HgN/A
6:20 AM55 °FCool.1 mph82%29.95 "HgN/A
5:20 AM55 °FCool.2 mph82%29.95 "HgN/A
4:20 AM57 °FCool.6 mph77%29.95 "HgN/A
3:20 AM59 °FCool.5 mph72%29.95 "HgN/A
2:20 AM59 °FCool.3 mph72%29.98 "HgN/A
1:20 AM61 °FCool.5 mph72%29.98 "HgN/A
12:20 AM61 °FCool.2 mph72%30.01 "HgN/A
11:20 PM
Thu, May 26
61 °FCool.6 mph72%29.98 "HgN/A
10:20 PM63 °FMild.6 mph68%30.01 "HgN/A
9:20 PM64 °FMild.6 mph64%29.98 "HgN/A
8:20 PM66 °FMild.9 mph64%29.98 "HgN/A
7:20 PM70 °FMild.9 mph53%29.98 "Hg6 mi
6:20 PM72 °FMild.10 mph53%29.98 "Hg6 mi
5:20 PM72 °FMild.8 mph50%29.98 "HgN/A
4:20 PM72 °FMild.7 mph50%30.01 "HgN/A
Weather by CustomWeather, © 2016

See weather overviewHow to use our weather pages